Location: Bambrugge
(50.9212°N, 3.9299°E)
Time: 13:43:33
(UTC+00:00)

Genesis I - Pass Details

Date: 23 May 2024
Orbit: 433 x 467 km, 64.5° (Epoch: 16 June)

Event Time Altitude Azimuth Distance (km) Brightness Sun altitude
Exits shadow 02:04:20 16° 185° (S) 1,246 4.6 -11.8°
Maximum altitude 02:06:42 38° 123° (ESE) 711 3.9 -11.6°
Drops below altitude 10° 02:10:02 10° 55° (NE) 1,602 7.0 -11.3°
Sets 02:12:15 0° 47° (NE) 2,488 8.6 -11.1°
